Погода в Ивделе

Погода в Ивделе : погода сейчас, прогноз погоды и архив. Всё, что Вы хотите узнать о погоде в Ивделе!

Хотите узнать прогноз погоды в Ивделе? Тогда Вам сюда: Погода в Ивделе

Поиск расширенной информации на нашем сайте:

Другие новости

Новости СМИ2

Главная страница сайта

Новости сайта

03.07.2017

Напоминаем, что на нашем специализированном сайте Метеоцентр.Азия вы можете получить высокодетализированные автоматические прогнозы погоды по пунктам России, СНГ и мира в авиационном формате (включающие направление и скорость ветра, видимость, явления погоды, количество и форму облачности, нижнюю и верхнюю границу облачности).


Погода в Ивделе - сегодня

Время (UTC), дата Ветер
(°,м/с) 
Видим.   Явления Облачность Т
(°С)
Тd
(°С)
f(%) Тe
(°С)
Pmin
(гПа)
dP
(гПа)
Po
(мм)
O2
(г/м3)
Тmin Tmax R s Состояние
почвы
21 16.02.18 180 (Ю) 10 км    10/10 1260 м 
[Sc]
-6.7 -12.6 63 -6  1033.5  -0.9  766  318           
00 17.02.18 180 (Ю) 10 км    9/4 1000 м средняя, верхняя 
[Sc|Ac trans|Ci fib]
-6.9 -13.7 58 -8  1032.6  -0.9  765  318           
03 17.02.18 200 (Ю) 20000 м    9/6 1000 м средняя 
[Sc|Ac trans]
-7.2 -14.2 57 -9  1031.3  -1.3  764  318  -8.8      32  равномерный
сухой снег
100% 
06 17.02.18 230 (ЮЗ) 20000 м    10/3 1000 м средняя, верхняя 
[Sc|Ac trans|Ci fib]
-6 -13.7 54 -7  1031  -0.3  764  316           
09 17.02.18 170 (Ю) 20000 м    10/3 1000 м средняя 
[Sc|Ac trans]
-3.8 -11.1 57 -5  1029.6  -1.3  763  313           
12 17.02.18 210 (ЮЗ) 20000 м    10/4 1000 м средняя 
[Sc|Ac trans]
-4.3 -10.9 60 -6  1027.9  -1.6  762  313           
18 17.02.18 240 (ЮЗ) 10 км    10/0 средняя 
[Ac As]
-5.3 -11.9 60 -5  1027.9  -0.6  762  314           
21 17.02.18 210 (ЮЗ) 10 км    10/5 1000 м средняя 
[Sc|Ac As]
-4.3 -10.8 60 -4  1027.5  -0.5  761  313           
00 18.02.18 220 (ЮЗ) 10 км    3/0 верхняя 
[Ci fib]
-3.9 -9.6 65 -7  1026.9  -0.5  761  312           
03 18.02.18 220 (ЮЗ) 20000 м    8/3 1000 м средняя, верхняя 
[Sc|Ac lent|Ci fib]
-4.2 -9 69 -5  1026.5  -0.4  761  312  -6      31  равномерный
сухой снег
100% 
06 18.02.18 240 (ЮЗ) 20000 м    9/8 1000 м средняя 
[Sc|Ac trans]
-2.4 -8.9 61 -3  1026.2  -0.2  761  310           
09 18.02.18 200 (Ю) 20000 м    9/8 1000 м средняя 
[Sc|Ac trans]
-1.9 -9 58 -3  1026  -0.2  760  309           
12 18.02.18 230 (ЮЗ) 20000 м    9/5 1000 м средняя 
[Sc|Ac trans]
-2.2 -9.5 57 -4  1026  760  310           
18 18.02.18 240 (ЮЗ) 10 км    9/5 1000 м средняя 
[Sc|Ac trans]
-4 -10.1 63 -6  1025.8  -0.3  760  312           
21 18.02.18 240 (ЮЗ) 10 км    8/8 1000 м 
[Sc]
-4.8 -10.6 64 -6  1025.6  -0.2  760  313           
00 19.02.18 250 (З) 10 км    9/9 1000 м 
[Sc]
-4.9 -10.8 63 -8  1025.7  0.1  760  313           
03 19.02.18 160 (Ю) 20000 м    9/8 1000 м средняя 
[Sc|Ac trans]
-5.3 -11 64 -5  1025.6  -0.1  760  313  -5.3      31  равномерный
сухой снег
100% 
06 19.02.18 140 (ЮВ) 35000 м    10/0 средняя 
[Ac As]
-5.4 -10.6 67 -5  1025.5  -0.2  760  313  -5.4         
09 19.02.18 110 (В) 45000 м    9/0 средняя, верхняя 
[Ac trans|Ci fib]
-2.8 -11 53 -4  1024.8  -0.5  760  310           
12 19.02.18 100 (В) 20000 м    10/0 средняя 
[Ac trans]
-2.2 -11.5 49 -2  1023.8  -0.9  759  309           
18 19.02.18 тихо ()   10 км  слаб. снег  10/0 средняя 
[Ac As]
-8.7 -11.6 79 -9  1021.7  -1.1  757  316           
21 19.02.18 тихо ()   4000 м  слаб. снег  10/0 средняя 
[As op]
-9.8 -12 84 -10  1020.8  -1  756  317           
03 20.02.18 тихо ()   10 км  слаб. снег  10/10 480 м 
[Ns]
-10.1 -11.9 87 -10  1019.1  -1.2  755  317  -11.2    32  равномерный
сухой снег
100% 
06 20.02.18 тихо ()   11000 м  слаб. снег  10/0 средняя 
[Ac As]
-7.3 -9.8 82 -7  1018.3  -0.6  755  313           
09 20.02.18 тихо ()   25000 м  слаб. ливневой снег  9/8 840 м кучево-дожд., верхняя 
[Cb cap|Ci fib]
-4.7 -9.7 68 -5  1017.7  -0.5  754  310           
Время (UTC), дата Ветер
(°,м/с) 
Видим.   Явления Облачность Т
(°С)
Тd
(°С)
f(%) Тe
(°С)
Pmin
(гПа)
dP
(гПа)
Po
(мм)
O2
(г/м3)
Тmin Tmax R s Состояние
почвы

Для получения пояснительной информации подведите курсор к названию столбца.

ПОГОДА в Ивделе - архив

Всё, что Вы хотите узнать о погоде в Ивделе - удобно и подробно!

Выберите нужную дату (начиная с 1 января 2015* года) и нажмите кнопку "Найти".
Будут отображены архивные сводки погоды по пункту Ивдель, начиная с указанной даты.


Отображать данные в формате CSV (для использования в таблицах Excel)


Внимание! Наш архив погоды предназначен исключительно для личного некоммерческого использования в познавательных целях. Если Вам необходимы официальные справки о состоянии погоды (для производственных, юридических, коммерческих и т.п. целей), обращайтесь в органы Росгидромета.

*Примечание: данная дата относится к архиву по метеостанциям СССР (Россия, СНГ, Балтия).
Архив по метеостанциям Зарубежной Европы и Азии (кроме Китая) хранится 10 дней, по другим регионам земного шара (Китай, Африка, Америка, Австралия, Океания) - 1 день.

Ивдель - район местоположения метеостанции


Название, широта, долгота, высота метеостанции:
Ивдель 60.7°ш. 60.4°д. 95 м над ур. моря [Российская Федерация]

Дополнительная информация

В oтличие oт бoльшинства пoгoдных сайтoв мы публикуем пoдрoбную метеoинфoрмацию в детальнoм прoфессиoнальнoм фoрмате.

Характеристики температуры и влажнoсти вoздуха измеряются на высoте 2 м в тени вдали oт зданий и деревьев.
Скoрoсть ветра измеряется на высoте 10 м (на урoвне рoста челoвека скoрoсть ветра ниже в 1.5-2 раза). Если метеoстанция нахoдится в гoрoде или в лесу, тo скoрoсть ветра занижена на 2-4 м/с пo сравнению с oткрытым местoм. Скoрoсть ветра над акватoриями крупных рек и oзёр, а также на вершинах хoлмoв на 2-5 м/с выше, чем в oбычных услoвиях.
Атмoсфернoе давление в разных тoчках местнoсти мoжет значительнo oтличаться oт давления на метеoстанции, в зависимoсти oт услoвий рельефа (при пoдъёме на 10 м давление пoнижается примернo на 1 мм рт.ст.).